[[{"header":{"parameterUnit":"m.s-1","parameterCategory":1,"la1":30.2991,"la2":30.254,"lo1":-89.0895,"lo2":-89.0444,"dy":0.0017,"dx":0.0017,"nx":28,"ny":28,"refTime":"2024-11-23T09:00:00:Z","depth":0,"parameterNumber":2,"parameterNumberName":"U-component_of_WINDS"},"data":[0,0,0,0,0,0,0,0,0,0,0,0,0,0,0,0,0,0,0,0,0,0,0,0,0,0,0,0,0,0,0,0,0,0,0,0,0,0,0,0,0,0,0,0,0,0,0,0,0,0,0,0,0,0,0,0,0,0,-2.3378,-2.3378,0,-2.3403,-2.3403,-2.3404,-2.331,-2.3307,-2.3304,-2.3302,-2.3329,-2.3332,-2.3335,0,0,0,0,0,0,0,0,0,0,0,0,0,-2.3251,-2.3254,-2.3378,-2.3378,-2.3379,-2.3403,-2.3403,-2.3404,-2.331,-2.3307,-2.3304,-2.3301,-2.3328,-2.3332,-2.3336,0,0,0,0,0,0,0,0,0,0,0,0,0,-2.3294,-2.3254,-2.3378,-2.3335,-2.3331,-2.3403,-2.3403,-2.3404,-2.3311,-2.3307,-2.3303,-2.3299,-2.3326,-2.3331,-2.3336,-2.3451,0,0,-2.3351,-2.3354,0,0,0,0,0,0,0,0,-2.3292,-2.3299,-2.3341,-2.3338,-2.3334,-2.3349,-2.3368,-2.342,-2.3312,-2.3319,-2.3302,-2.3297,-2.3339,-2.3343,-2.3357,-2.3452,-2.3453,-2.3352,-2.3355,-2.3357,-2.3358,0,0,0,0,0,0,0,-2.3289,-2.3297,-2.3388,-2.3342,-2.3338,-2.3315,-2.3316,-2.3378,-2.3352,-2.3318,-2.3311,-2.3315,-2.3336,-2.3352,-2.3357,-2.3454,-2.3352,-2.3356,-2.3359,-2.3361,-2.3645,-2.3649,0,0,0,0,0,0,-2.3291,-2.3295,-2.3387,-2.3389,-2.3302,-2.3321,-2.3322,-2.3349,-2.3351,-2.3348,-2.3319,-2.3311,-2.3346,-2.3351,-2.3357,-2.3493,-2.3357,-2.3362,-2.3365,-2.364,-2.3646,-2.3651,0,0,0,0,0,0,-2.3289,-2.33,-2.3386,-2.334,-2.3349,-2.3327,-2.3358,-2.3351,-2.3367,-2.3352,-2.3347,-2.334,-2.3343,-2.335,-2.3428,-2.3492,-2.3364,-2.3368,-2.3635,-2.3642,-2.3648,-2.3764,0,0,0,0,0,0,-2.3286,-2.33,-2.3343,-2.3342,-2.3352,-2.3457,-2.3361,-2.3355,-2.3376,-2.3365,-2.337,-2.3367,-2.334,-2.3421,-2.3433,-2.3497,-2.3372,-2.3629,-2.3638,-2.3646,-2.3754,-2.3774,-2.379,0,0,0,0,0,-2.3281,-2.3375,-2.3346,-2.3357,-2.3406,-2.3461,-2.3467,-2.3433,-2.3381,-2.3425,-2.3415,-2.3367,-2.3483,-2.343,-2.3443,-2.3509,-2.3625,-2.3636,-2.3646,-2.3746,-2.377,-2.379,0,0,0,0,0,0,-2.3385,-2.3374,-2.3342,-2.3437,-2.3451,-2.3445,-2.3499,-2.3459,-2.3488,-2.3478,-2.3435,-2.3437,-2.3523,-2.3523,-2.3465,-2.362,-2.3545,-2.3558,-2.3617,-2.364,-2.3657,-2.3656,-2.3376,0,0,0,0,0,-2.3418,-2.3464,-2.3452,-2.3537,-2.3546,-2.3521,-2.3544,-2.3517,-2.3529,-2.3535,-2.3531,-2.3545,-2.3584,-2.3612,-2.3647,-2.3753,-2.3753,-2.3804,-2.3822,-2.3837,-2.385,-2.3907,-2.393,-2.3684,-2.3684,-2.3684,0,0,-2.3489,-2.3489,-2.352,-2.3558,-2.3565,-2.3614,-2.3527,-2.3582,-2.3617,-2.3543,-2.3617,-2.3615,-2.3627,-2.372,-2.3761,-2.3723,-2.3918,-2.385,-2.3862,-2.3867,-2.392,-2.3943,-2.3964,-2.3691,-2.369,-2.3689,0,0,-2.3643,-2.3647,-2.3719,-2.3728,-2.3739,-2.3722,-2.374,-2.374,-2.3736,-2.3809,-2.3754,-2.3796,-2.3865,-2.3877,-2.3892,-2.405,-2.4007,-2.4062,-2.4158,-2.4214,-2.4233,-2.425,-2.4308,-2.4329,-2.4075,-2.4075,-2.4075,0,-2.3729,-2.38,-2.3761,-2.382,-2.3839,-2.3773,-2.3846,-2.3857,-2.388,-2.3895,-2.3851,-2.3937,-2.3941,-2.4036,-2.4075,-2.4088,-2.4108,-2.4063,-2.4233,-2.425,-2.4265,-2.432,-2.4342,-2.4082,-2.4081,-2.408,-2.408,0,-2.3907,-2.3956,-2.4013,-2.4037,-2.4062,-2.4128,-2.4099,-2.4129,-2.41,-2.4088,-2.4164,-2.4166,-2.4201,-2.4221,-2.4193,-2.4313,-2.4289,-2.4241,-2.4165,-2.4296,-2.4347,-2.4368,-2.4091,-2.4089,-2.4087,-2.4085,0,0,-2.4128,-2.4129,-2.415,-2.4161,-2.4169,-2.4207,-2.427,-2.4304,-2.4331,-2.4349,-2.4401,-2.4461,-2.4416,-2.4433,-2.4405,-2.4454,-2.4581,-2.44,-2.4399,-2.4435,-2.4715,-2.4753,-2.4778,-2.4552,-2.4556,-2.4559,-2.4714,0,-2.428,-2.4387,-2.4354,-2.4463,-2.4509,-2.4447,-2.4502,-2.4513,-2.4503,-2.4541,-2.453,-2.4573,-2.451,-2.452,-2.4565,-2.4556,-2.4637,-2.4544,-2.4602,-2.4604,-2.4602,-2.4804,-2.4844,-2.4991,-2.4734,-2.4737,-2.4739,0,-2.4472,-2.4498,-2.4612,-2.4612,-2.463,-2.468,-2.4709,-2.4746,-2.4757,-2.4746,-2.4766,-2.4728,-2.479,-2.4713,-2.4798,-2.4736,-2.4757,-2.4756,-2.4761,-2.4767,-2.4681,-2.4817,-2.5037,-2.5059,-2.477,-2.4767,-2.4765,0,-2.4625,-2.4687,-2.4763,-2.4774,-2.4776,-2.4813,-2.4816,-2.4823,-2.4845,-2.487,-2.4885,-2.4917,-2.4935,-2.4961,-2.4933,-2.4879,-2.5024,-2.4943,-2.5018,-2.5019,-2.5053,-2.5051,-2.5281,-2.5063,-2.5063,-2.5063,-2.5062,0,-2.4799,-2.4872,-2.4832,-2.4879,-2.4958,-2.4919,-2.4999,-2.4994,-2.5001,-2.5047,-2.4994,-2.5038,-2.4998,-2.5038,-2.5016,-2.5091,-2.5099,-2.5093,-2.5087,-2.5099,-2.5101,-2.5114,-2.5104,-2.5068,-2.5067,-2.5066,-2.5065,0,-2.4984,-2.4959,-2.5039,-2.5034,-2.5035,-2.5094,-2.509,-2.5134,-2.5119,-2.5178,-2.5189,-2.5167,-2.5212,-2.5186,-2.5232,-2.5217,-2.5316,-2.5294,-2.5312,-2.5307,-2.5383,-2.5377,-2.5631,-2.5663,-2.5424,-2.5426,-2.5428,0,-2.5098,-2.5152,-2.5153,-2.518,-2.5186,-2.523,-2.5252,-2.5215,-2.5242,-2.5259,-2.5301,-2.5341,-2.5371,-2.5446,-2.5434,-2.5469,-2.545,-2.5536,-2.5455,-2.5466,-2.5453,-2.5451,-2.5457,-2.5554,-2.5556,-2.5559,-2.556,0,-2.5304,-2.5289,-2.5324,-2.5355,-2.5384,-2.5407,-2.5425,-2.545,-2.5413,-2.5445,-2.549,-2.5514,-2.5561,-2.5602,-2.5631,-2.5634,-2.5592,-2.5586,-2.5605,-2.5619,-2.5628,-2.5626,-2.5359,-2.5581,-2.5579,-2.5577,-2.5576,-2.5575,-2.5457,-2.5503,-2.5511,-2.5552,-2.5562,-2.558,-2.5622,-2.5612,-2.5649,-2.5684,-2.566,-2.5714,-2.5724,-2.5759,-2.5767,-2.5809,-2.5774,-2.5802,-2.5809,-2.5817,-2.5828,-2.562,-2.5814,-2.5813,-2.5813,-2.5812,-2.5812,0,-2.5662,-2.5664,-2.5702,-2.5729,-2.5762,-2.5718,-2.5736,-2.5766,-2.5814,-2.5827,-2.5858,-2.591,-2.5949,-2.594,-2.5976,-2.6011,-2.5993,-2.6022,-2.602,-2.6022,-2.5857,-2.5837,-2.6036,-2.6036,-2.6036,-2.6036,-2.6036,-2.6036,-2.5772,-2.5848,-2.5834,-2.5914,-2.5915,-2.5967,-2.5982,-2.5999,-2.6009,-2.6069,-2.6102,-2.6095,-2.61,-2.6135,-2.617,-2.6166,-2.6182,-2.6219,-2.6209,-2.6055,-2.6033,-2.6012,-2.5994,-2.6223,-2.6223,-2.637,-2.6372,-2.6373]},{"header":{"parameterUnit":"m.s-1","parameterCategory":1,"la1":30.2991,"la2":30.254,"lo1":-89.0895,"lo2":-89.0444,"dy":0.0017,"dx":0.0017,"nx":28,"ny":28,"refTime":"2024-11-23T09:00:00:Z","depth":0,"parameterNumber":3,"parameterNumberName":"V-component_of_WINDS"},"data":[0,0,0,0,0,0,0,0,0,0,0,0,0,0,0,0,0,0,0,0,0,0,0,0,0,0,0,0,0,0,0,0,0,0,0,0,0,0,0,0,0,0,0,0,0,0,0,0,0,0,0,0,0,0,0,0,0,0,-2.1991,-2.1991,0,-2.2045,-2.2046,-2.2046,-2.2032,-2.2031,-2.203,-2.2029,-2.2083,-2.2085,-2.2088,0,0,0,0,0,0,0,0,0,0,0,0,0,-2.1873,-2.1875,-2.1991,-2.1991,-2.1992,-2.2045,-2.2046,-2.2046,-2.2032,-2.2031,-2.203,-2.2029,-2.2082,-2.2085,-2.2088,0,0,0,0,0,0,0,0,0,0,0,0,0,-2.1925,-2.1876,-2.1991,-2.1992,-2.1992,-2.2045,-2.2046,-2.2047,-2.2033,-2.2031,-2.2029,-2.2028,-2.2081,-2.2085,-2.2088,-2.2143,0,0,-2.2099,-2.2101,0,0,0,0,0,0,0,0,-2.1922,-2.193,-2.1991,-2.1992,-2.1992,-2.203,-2.2024,-2.2079,-2.2033,-2.2017,-2.2029,-2.2027,-2.2067,-2.2071,-2.2085,-2.2145,-2.2148,-2.21,-2.2102,-2.2103,-2.2104,0,0,0,0,0,0,0,-2.1919,-2.1927,-2.2012,-2.1992,-2.1993,-2.1989,-2.1994,-2.2034,-2.205,-2.2019,-2.2018,-2.2024,-2.2067,-2.2081,-2.2086,-2.2148,-2.21,-2.2103,-2.2105,-2.2106,-2.2255,-2.2257,0,0,0,0,0,0,-2.1915,-2.1924,-2.201,-2.2014,-2.1953,-2.1992,-2.1998,-2.202,-2.205,-2.2053,-2.2026,-2.2024,-2.2076,-2.2082,-2.2088,-2.2153,-2.2103,-2.2107,-2.2109,-2.2253,-2.2256,-2.2258,0,0,0,0,0,0,-2.1912,-2.1923,-2.2008,-2.1969,-2.1979,-2.1996,-2.202,-2.2022,-2.2036,-2.2055,-2.2058,-2.2038,-2.2075,-2.2083,-2.2129,-2.2155,-2.2108,-2.2112,-2.2251,-2.2254,-2.2257,-2.2285,0,0,0,0,0,0,-2.1909,-2.1922,-2.1943,-2.197,-2.1982,-2.2049,-2.2021,-2.2024,-2.2043,-2.2041,-2.2067,-2.207,-2.2074,-2.2124,-2.2133,-2.2159,-2.2115,-2.2249,-2.2253,-2.2256,-2.2282,-2.2288,-2.2294,0,0,0,0,0,-2.1905,-2.1949,-2.1944,-2.1955,-2.2009,-2.2051,-2.2058,-2.2062,-2.2045,-2.2066,-2.2078,-2.2069,-2.2151,-2.2129,-2.2139,-2.2167,-2.2248,-2.2252,-2.2255,-2.2279,-2.2287,-2.2293,0,0,0,0,0,0,-2.1925,-2.1952,-2.1948,-2.2002,-2.2024,-2.2049,-2.2076,-2.207,-2.2098,-2.2094,-2.2098,-2.2104,-2.2151,-2.2164,-2.2139,-2.222,-2.2197,-2.2203,-2.2211,-2.2219,-2.2224,-2.2221,-2.2118,0,0,0,0,0,-2.1935,-2.1968,-2.199,-2.2035,-2.2047,-2.2059,-2.2078,-2.2079,-2.2102,-2.2112,-2.2127,-2.2149,-2.218,-2.22,-2.2229,-2.2283,-2.2288,-2.2307,-2.2313,-2.2318,-2.2323,-2.2352,-2.2361,-2.2271,-2.2271,-2.2271,0,0,-2.1958,-2.1977,-2.1997,-2.204,-2.2057,-2.209,-2.2067,-2.2103,-2.2127,-2.2117,-2.2162,-2.2174,-2.2199,-2.2249,-2.2272,-2.2261,-2.2349,-2.2323,-2.2327,-2.2329,-2.2357,-2.2366,-2.2373,-2.2273,-2.2273,-2.2272,0,0,-2.2015,-2.2033,-2.2073,-2.2091,-2.2118,-2.2126,-2.2135,-2.2161,-2.2168,-2.2213,-2.2206,-2.2234,-2.2287,-2.2305,-2.2321,-2.2385,-2.2378,-2.2394,-2.2426,-2.2454,-2.2461,-2.2467,-2.249,-2.2498,-2.2399,-2.2399,-2.2399,0,-2.2039,-2.209,-2.2094,-2.213,-2.2149,-2.2141,-2.2181,-2.2198,-2.2233,-2.2246,-2.2232,-2.2298,-2.2314,-2.2369,-2.2384,-2.2398,-2.2408,-2.2391,-2.246,-2.2466,-2.2472,-2.2493,-2.2502,-2.2401,-2.2401,-2.2401,-2.2401,0,-2.2118,-2.2152,-2.2181,-2.2215,-2.2237,-2.2275,-2.2284,-2.2306,-2.2305,-2.2314,-2.236,-2.2379,-2.2412,-2.2425,-2.2424,-2.2479,-2.2471,-2.2459,-2.2435,-2.2482,-2.2503,-2.2511,-2.2404,-2.2403,-2.2403,-2.2402,0,0,-2.219,-2.2226,-2.2236,-2.2252,-2.2281,-2.2307,-2.2344,-2.2377,-2.2395,-2.2419,-2.245,-2.2494,-2.2483,-2.2501,-2.2503,-2.2527,-2.2576,-2.2512,-2.2513,-2.2523,-2.2637,-2.2646,-2.2656,-2.2571,-2.2573,-2.2574,-2.2635,0,-2.225,-2.2316,-2.232,-2.238,-2.2412,-2.2405,-2.2437,-2.2458,-2.2467,-2.2495,-2.2504,-2.2536,-2.2519,-2.253,-2.2554,-2.2565,-2.2599,-2.2561,-2.26,-2.2601,-2.2594,-2.2666,-2.2676,-2.2733,-2.2643,-2.2644,-2.2645,0,-2.2329,-2.2356,-2.2419,-2.2443,-2.2456,-2.2485,-2.2515,-2.2542,-2.2565,-2.257,-2.259,-2.2588,-2.2625,-2.26,-2.2651,-2.2625,-2.2641,-2.2648,-2.2651,-2.2655,-2.2626,-2.2672,-2.2751,-2.2759,-2.2658,-2.2657,-2.2656,0,-2.2374,-2.2426,-2.2471,-2.2484,-2.2514,-2.2534,-2.2547,-2.2569,-2.2588,-2.2613,-2.2626,-2.2655,-2.2672,-2.2694,-2.27,-2.2681,-2.275,-2.2726,-2.2755,-2.2755,-2.277,-2.2769,-2.2853,-2.2781,-2.2781,-2.278,-2.278,0,-2.2441,-2.248,-2.2492,-2.2519,-2.2562,-2.2566,-2.2608,-2.262,-2.2639,-2.2668,-2.2663,-2.269,-2.2696,-2.2724,-2.2728,-2.2769,-2.2777,-2.2781,-2.2782,-2.2782,-2.2781,-2.2792,-2.2788,-2.2783,-2.2782,-2.2782,-2.2781,0,-2.25,-2.2509,-2.2557,-2.2581,-2.2588,-2.2618,-2.2638,-2.2664,-2.2673,-2.2709,-2.2718,-2.2731,-2.2763,-2.2771,-2.281,-2.2813,-2.2862,-2.2858,-2.2854,-2.2854,-2.2883,-2.288,-2.2976,-2.2989,-2.2909,-2.2909,-2.291,0,-2.2541,-2.2571,-2.2598,-2.2617,-2.2632,-2.2663,-2.2682,-2.2687,-2.2708,-2.2736,-2.2758,-2.279,-2.2816,-2.2868,-2.2881,-2.291,-2.2908,-2.2939,-2.2912,-2.2911,-2.2908,-2.2906,-2.2909,-2.2944,-2.2945,-2.2946,-2.2947,0,-2.2614,-2.2618,-2.2646,-2.2677,-2.27,-2.2724,-2.2747,-2.2763,-2.2771,-2.2794,-2.2828,-2.2848,-2.2887,-2.2919,-2.2948,-2.2961,-2.2955,-2.2955,-2.2963,-2.2963,-2.296,-2.2962,-2.2868,-2.2953,-2.2952,-2.2952,-2.2951,-2.2951,-2.2666,-2.2692,-2.2715,-2.2747,-2.2765,-2.2786,-2.2811,-2.2823,-2.2851,-2.2884,-2.2885,-2.2922,-2.2943,-2.2982,-2.2996,-2.3024,-2.3015,-2.3027,-2.303,-2.3033,-2.3035,-2.2955,-2.303,-2.3029,-2.3029,-2.3029,-2.3029,0,-2.2739,-2.2753,-2.2782,-2.2815,-2.284,-2.2833,-2.2857,-2.2878,-2.2911,-2.2932,-2.2957,-2.2995,-2.3026,-2.3041,-2.3071,-2.309,-2.3088,-2.3098,-2.3097,-2.31,-2.3042,-2.3032,-2.3099,-2.3099,-2.3099,-2.3099,-2.3099,-2.3099,-2.2779,-2.2823,-2.2829,-2.288,-2.2894,-2.2931,-2.2945,-2.2965,-2.2981,-2.3024,-2.305,-2.306,-2.3078,-2.3109,-2.3137,-2.314,-2.3151,-2.3162,-2.3164,-2.3111,-2.3104,-2.3097,-2.3087,-2.3165,-2.3165,-2.3219,-2.322,-2.322]}]]